******************************************************************************* JPL/HORIZONS 73P/Schwassmann-Wachmann 3 2025-Dec-12 18:03:01 Rec #:90000734 (+COV) Soln.date: 2002-May-23_05:39:15 # obs: 32 (1930-1979) IAU76/J2000 helio. ecliptic osc. elements (au, days, deg., period=Julian yrs): EPOCH= 2444192.5 ! 1979-Nov-15.0000000 (TDB) RMSW= n.a. EC= .6929427146079141 QR= .940724725367892 TP= 2444119.2804695205 OM= 69.94669148690706 W= 198.7767204232974 IN= 11.40755045337739 A= 3.063678245467021 MA= 13.45755874918482 ADIST= 5.186631765566149 PER= 5.3625694705583 N= .183797392 ANGMOM= .021708702 DAN= 4.6305 DDN= .96167 L= 268.3777702 B= -3.6501316 MOID= .0403571 TP= 1979-Sep-02.7804695205 Comet physical (GM= km^3/s^2; RAD= km): GM= n.a. RAD= n.a. M1= 14.3 M2= n.a. k1= 8. k2= n.a. PHCOF= n.a. Comet non-gravitational force model (AMRAT=m^2/kg;A1-A3=au/d^2;DT=days;R0=au): AMRAT= 0. DT= 0. A1= 6.772435307503E-9 A2= 3.595408052206E-10 A3= 0. Standard model: ALN= .1112620426 NK= 4.6142 NM= 2.15 NN= 5.093 R0= 2.808 COMET comments 1: soln ref.= JPL#J7910/16, data arc: 1930-05-16 to 1979-10-15 2: k1=8.; ******************************************************************************* ******************************************************************************* Ephemeris / WWW_USER Fri Dec 12 18:03:01 2025 Pasadena, USA / Horizons ******************************************************************************* Target body name: 73P/Schwassmann-Wachmann 3 {source: JPL#J7910/16} Center body name: Earth (399) {source: DE441} Center-site name: GEOCENTRIC ******************************************************************************* Start time : A.D. 2027-Dec-23 00:00:00.0000 UT Stop time : A.D. 2027-Dec-24 00:00:00.0000 UT Step-size : 180 minutes ******************************************************************************* Target pole/equ : undefined Target radii : undefined Center geodetic : 0.0, 0.0, -6378.137 {E-lon(deg),Lat(deg),Alt(km)} Center cylindric: 0.0, 0.0, 0.0 {E-lon(deg),Dxy(km),Dz(km)} Center pole/equ : ITRF93 {East-longitude positive} Center radii : 6378.137, 6378.137, 6356.752 km {Equator_a, b, pole_c} Target primary : Sun Vis. interferer : MOON (R_eq= 1737.400) km {source: DE441} Rel. light bend : Sun {source: DE441} Rel. lght bnd GM: 1.3271E+11 km^3/s^2 Small-body perts: Yes {source: SB441-N16} Atmos refraction: NO (AIRLESS) RA format : HMS Time format : CAL Calendar mode : Mixed Julian/Gregorian EOP file : eop.251212.p260310 EOP coverage : DATA-BASED 1962-JAN-20 TO 2025-DEC-12. PREDICTS-> 2026-MAR-09 Units conversion: 1 au= 149597870.700 km, c= 299792.458 km/s, 1 day= 86400.0 s Table cut-offs 1: Elevation (-90.0deg=NO ),Airmass (>38.000=NO), Daylight (NO ) Table cut-offs 2: Solar elongation ( 0.0,180.0=NO ),Local Hour Angle( 0.0=NO ) Table cut-offs 3: RA/DEC angular rate ( 0.0=NO ) ******************************************************************************* Initial IAU76/J2000 heliocentric ecliptic osculating elements (au, days, deg.): EPOCH= 2444192.5 ! 1979-Nov-15.0000000 (TDB) RMSW= n.a. EC= .6929427146079141 QR= .940724725367892 TP= 2444119.2804695205 OM= 69.94669148690706 W= 198.7767204232974 IN= 11.40755045337739 Equivalent ICRF heliocentric cartesian coordinates (au, au/d): X= 1.320735704031117E+00 Y=-1.844813237143105E-01 Z=-3.768983621943678E-01 VX= 1.253647302951301E-02 VY= 1.258805575252319E-02 VZ= 3.854255858497182E-03 Comet physical (GM= km^3/s^2; RAD= km): GM= n.a. RAD= n.a. M1= 14.3 M2= n.a. k1= 8. k2= n.a. PHCOF= n.a. Comet non-gravitational force model (AMRAT=m^2/kg;A1-A3=au/d^2;DT=days;R0=au): AMRAT= 0. DT= 0. A1= 6.772435307503E-9 A2= 3.595408052206E-10 A3= 0. Standard model: ALN= .1112620426 NK= 4.6142 NM= 2.15 NN= 5.093 R0= 2.808 ********************************************************************************************* Date__(UT)__HR:MN r rdot delta deldot S-O-T /r ********************************************************************************************* $$SOE 2027-Dec-23 00:00 0.919017386449 -0.1340942 1.90051377279818 0.1209338 2.6697 /L 2027-Dec-23 03:00 0.919009620767 -0.0810407 1.90052422464746 0.1686166 2.6544 /L 2027-Dec-23 06:00 0.919005685268 -0.0279856 1.90053811850042 0.2162891 2.6393 /L 2027-Dec-23 09:00 0.919005580020 0.0250699 1.90055545360757 0.2639512 2.6244 /L 2027-Dec-23 12:00 0.919009305024 0.0781250 1.90057622920284 0.3116025 2.6097 /L 2027-Dec-23 15:00 0.919016860211 0.1311786 1.90060044450373 0.3592429 2.5952 /L 2027-Dec-23 18:00 0.919028245438 0.1842298 1.90062809871139 0.4068721 2.5809 /L 2027-Dec-23 21:00 0.919043460494 0.2372776 1.90065919101075 0.4544899 2.5669 /L 2027-Dec-24 00:00 0.919062505097 0.2903210 1.90069372057057 0.5020961 2.5530 /L $$EOE ********************************************************************************************* Column meaning: TIME Times PRIOR to 1962 are UT1, a mean-solar time closely related to the prior but now-deprecated GMT. Times AFTER 1962 are in UTC, the current civil or "wall-clock" time-scale. UTC is kept within 0.9 seconds of UT1 using integer leap-seconds for 1972 and later years. Conversion from the internal Barycentric Dynamical Time (TDB) of solar system dynamics to the non-uniform civil UT time-scale requested for output has not been determined for UTC times after the next July or January 1st. Therefore, the last known leap-second is used as a constant over future intervals. Time tags refer to the UT time-scale conversion from TDB on Earth regardless of observer location within the solar system, although clock rates may differ due to the local gravity field and no analog to "UT" may be defined for that location. Any 'b' symbol in the 1st-column denotes a B.C. date. First-column blank (" ") denotes an A.D. date. CALENDAR SYSTEM Mixed calendar mode was active such that calendar dates after AD 1582-Oct-15 (if any) are in the modern Gregorian system. Dates prior to 1582-Oct-5 (if any) are in the Julian calendar system, which is automatically extended for dates prior to its adoption on 45-Jan-1 BC. The Julian calendar is useful for matching historical dates. The Gregorian calendar more accurately corresponds to the Earth's orbital motion and seasons. A "Gregorian-only" calendar mode is available if such physical events are the primary interest. NOTE: "n.a." in output means quantity "not available" at the print-time. 'r rdot' = The Sun's apparent range ("r", light-time aberrated) and range-rate ("rdot") relative to the target center, as seen by the observer. A positive "rdot" means the target center was moving away from the Sun, negative means moving toward the Sun. Units: AU and KM/S 'delta deldot' = Apparent range ("delta", light-time aberrated) and range-rate ("delta-dot") of the target center relative to the observer. A positive "deldot" means the target center is moving away from the observer, negative indicates movement toward the observer. Units: AU and KM/S 'S-O-T /r' = Sun-Observer-Target apparent SOLAR ELONGATION ANGLE seen from the observers' location at print-time. The '/r' column provides a code indicating the targets' apparent position relative to the Sun in the observers' sky, as described below: Case A: For an observing location on the surface of a rotating body, that body rotational sense is considered: /T indicates target TRAILS Sun (evening sky: rises and sets AFTER Sun) /L indicates target LEADS Sun (morning sky: rises and sets BEFORE Sun) Case B: For an observing point that does not have a rotational model (such as a spacecraft), the "leading" and "trailing" condition is defined by the observers' heliocentric ORBITAL motion: * If continuing in the observers' current direction of heliocentric motion would encounter the targets' apparent longitude first, followed by the Sun's, the target LEADS the Sun as seen by the observer. * If the Sun's apparent longitude would be encountered first, followed by the targets', the target TRAILS the Sun. Two other codes can be output: /* indicates observer is Sun-centered (undefined) /? Target is aligned with Sun center (no lead or trail) The S-O-T solar elongation angle is numerically the minimum separation angle of the Sun and target in the sky in any direction. It does NOT indicate the amount of separation in the leading or trailing directions, which would be defined along the equator of a spherical coordinate system. Units: DEGREES Computations by ... Solar System Dynamics Group, Horizons On-Line Ephemeris System 4800 Oak Grove Drive, Jet Propulsion Laboratory Pasadena, CA 91109 USA General site: https://ssd.jpl.nasa.gov/ Mailing list: https://ssd.jpl.nasa.gov/email_list.html System news : https://ssd.jpl.nasa.gov/horizons/news.html User Guide : https://ssd.jpl.nasa.gov/horizons/manual.html Connect : browser https://ssd.jpl.nasa.gov/horizons/app.html#/x API https://ssd-api.jpl.nasa.gov/doc/horizons.html command-line telnet ssd.jpl.nasa.gov 6775 e-mail/batch https://ssd.jpl.nasa.gov/ftp/ssd/horizons_batch.txt scripts https://ssd.jpl.nasa.gov/ftp/ssd/SCRIPTS Author : Jon.D.Giorgini@jpl.nasa.gov ********************************************************************************************* !$$SOF COMMAND = '90000734' QUANTITIES = '19,20,23' START_TIME = '2027-Dec-23' STEP_SIZE = '3 hour' STOP_TIME = '2027-Dec-24'